SL-16 DEB, 39850

Orbit data source: Space-Track

SL-16 DEB, 39850 is space debris in LEO originally from a launch on Fri, 25 Dec 1992 UTC launched from the Tyuratam Missile And Space Complex (TTMTR). Debris objects in space refer to the collection of defunct objects orbiting the Earth. Examples of debris include non-operational satellites, rocket bodies, and fragments generated from explosions, collisions, or faulty payload assembly.

Loading next visibility...
Identifier
39850, 1992-093LC
Orbit
LEO
Country
Flag of CISCIS
Related business
Manufacturer
Unknown
Mission
Spacecraft
Bus & Motor
Unknown
Mass
Unknown
Launch date (UTC)
1992-12-25 (33 years ago)
Launch vehicle
Unknown
Launch site
Tyuratam Missile And Space Complex (TTMTR)
Object type
Payload
Rocket body
Debris
Shape & HBR
Unknown shape, 0.1 m
Radar Cross Section
Small (<0.1 m²)

Expand to show TLE details & history
Last TLE update: 3 days ago

TLE from 3 days ago
0 SL-16 DEB
1 39850U 92093LC  26170.60508535  .00000713  00000-0  42872-3 0  9993
2 39850  71.3361 125.1664 0088995  33.7901 326.8847 14.08087460336676
Epoch: 2026-06-19T14:31Z
TLE epoch observation values (Epoch: 2026-06-19T14:31:19.374Z)
Latitude
-0.00003°
Longitude
-0.496°
Altitude
814.506 km
Speed
7.474 km/s
True Right ascension
08h 20m 39s
True Declination
0° 00' 00"
Sunlit
Object was in daylight at epoch
Visualization orbit readout
Latitude
Unknown
Longitude
Unknown
Altitude
Unknown
Speed
Unknown
Apparent Right ascension
Unknown
Apparent Declination
Unknown
Sunlit
N/A
Visualization observer readout
Local Sidereal Time
05:33:29
Azimuth
Unknown
Elevation
Unknown
Doppler factor
Unknown
Orbital elements
Apogee altitude
928.272 km
Perigee altitude
799.373 km
Semi-major axis
7,241.96 km
Eccentricity
0.0089
Inclination
71.3361°
RAAN
125.1664°
Arg. of periapsis
33.7901°
True anomaly
326.32232°
Mean anomaly
326.8847°
Eccentric anomaly
326.60404°
Mean motion
3.52175 °/min
Orbital period
102.22 mins
BSTAR
0.00042872
Loading maneuver chart data...
Computing Atmospheric mass density...
Loading historical data...
Loading historical data...
Loading historical data...
Loading historical data...
Loading historical data...
Loading historical data...
Loading historical data...

Documentation

Showing up to 5 results
|